Temperature
11 10 10 10 10 10 10 10 10 9 9 10 10 10 10 10 10 10 11 11 11 11 11 11 11 11 12 12 12 12 11 11 11 11 11 11 11 12
10 10 10 10 10 10 10 10 10 9 9 9 9 10 10 10 10 10 10 10 10 11 11 11 11 11 11 11 11 11 11 11 11 11 11 11 11 11
10 10 10 10 10 10 10 9 9 9 9 9 9 10 10 10 10 10 10 10 10 10 10 10 11 11 11 11 11 11 11 11 11 11 11 11 11 11
10 10 10 10 9 9 9 9 9 9 9 9 9 9 9 9 9 10 10 10 10 10 10 10 10 10 10 10 10 10 10 10 10 10 10 10 11 11
10 9 9 9 9 9 9 9 9 9 9 9 9 9 9 9 9 9 9 9 9 9 9 10 10 10 10 10 10 10 10 10 10 10 10 10 10 10
9 9 9 9 9 9 9 9 9 9 9 9 9 9 9 9 9 9 9 9 9 9 9 9 9 9 9 9 10 10 10 10 10 10 10 10 10 10
9 9 9 9 9 9 9 8 8 8 8 8 8 8 8 8 8 8 8 8 8 8 9 9 8 9 9 9 9 9 9 9 9 9 9 9 9 9
9 9 8 8 8 8 8 8 8 8 8 8 8 8 8 8 8 8 8 8 8 8 8 8 8 8 8 8 8 9 9 9 9 9 9 9 9 9
8 8 8 8 8 8 8 8 8 7 7 7 7 7 7 7 7 7 7 7 7 7 7 8 8 7 8 8 8 8 8 8 8 8 8 8 8 9
8 8 7 7 7 7 7 7 7 7 7 7 7 7 7 7 7 7 7 7 7 6 6 7 7 7 7 7 7 7 7 8 8 7 7 8 8 8
7 7 7 7 7 7 7 7 7 7 7 7 6 6 6 6 6 6 6 6 6 6 6 6 6 6 6 6 7 7 7 7 7 7 7 7 7 7
7 7 6 6 6 6 6 6 6 6 6 6 6 6 6 6 6 6 6 5 5 5 5 5 5 5 5 6 6 6 6 6 6 7 7 7 7 7
6 6 6 6 6 6 6 6 6 6 5 5 6 5 6 6 6 5 5 5 5 5 5 5 5 5 5 5 5 5 6 6 6 6 6 6 6 6
6 6 6 5 5 5 5 5 5 5 5 5 5 5 5 5 5 5 5 5 5 5 5 4 4 4 4 4 4 5 5 5 5 6 6 6 6 6
5 5 5 5 5 5 5 5 5 5 4 4 4 5 5 5 5 5 5 5 4 4 4 4 4 4 4 4 4 4 4 5 5 5 5 5 5 5
5 5 5 5 4 4 4 4 4 4 4 4 4 4 4 4 4 4 4 4 4 4 4 4 4 4 4 4 4 4 4 4 4 4 4 4 5 5
4 4 4 4 4 4 4 4 4 4 3 3 3 3 3 3 3 3 3 3 3 3 3 3 3 3 3 3 3 3 3 3 3 3 4 4 4 4
4 3 3 3 3 3 3 3 3 3 3 3 3 3 3 3 3 3 3 3 3 3 3 3 3 3 3 3 3 3 3 3 3 3 3 3 3 4
3 3 3 2 2 2 2 2 2 2 2 2 2 2 2 2 2 3 3 2 2 2 2 2 2 2 2 2 2 2 2 2 2 3 3 3 3 3
2 2 2 2 2 2 2 2 2 2 2 2 2 2 2 2 2 2 2 2 2 2 2 2 2 2 2 2 2 2 2 2 2 2 2 2 3 3
2 1 1 1 1 1 1 1 1 2 2 2 2 2 2 2 2 2 2 2 2 2 1 1 1 1 1 1 1 2 2 1 1 2 2 2 2 2
1 1 1 1 1 1 1 1 1 1 1 1 1 1 1 1 1 1 1 1 1 1 1 1 1 1 1 1 1 1 1 1 1 1 1 1 1 2
1 1 1 1 1 1 0 0 0 1 1 1 1 1 1 1 1 1 1 1 1 1 1 1 1 0 0 0 0 1 1 1 1 1 1 1 1 2
Wind_Speed
1 1 1 1 1 1 2 2 2 2 3 3 2 3 4 4 5 4 4 5 6 6 6 5 4 4 4 3 3 3 2 3 2 2 2 1 1 1
1 1 1 1 1 1 1 1 2 3 3 2 2 3 4 4 6 5 4 6 6 7 6 5 4 4 4 2 2 1 1 2 2 2 1 1 1 1
1 1 2 2 1 1 1 1 1 2 3 3 2 2 1 2 5 5 4 4 5 6 6 5 5 4 4 3 1 1 1 2 2 2 1 1 1 1
2 2 3 2 2 2 1 1 2 2 3 3 2 2 2 2 3 3 4 4 4 6 6 6 6 4 3 1 1 1 1 2 1 1 1 1 1 1
2 2 3 2 3 2 2 2 2 2 2 2 2 2 2 1 2 3 3 3 4 5 6 6 6 5 4 2 2 2 2 2 1 0 0 0 1 1
2 2 3 3 3 3 2 2 1 1 1 1 2 2 2 1 0 1 3 3 3 4 5 5 6 6 5 4 3 3 3 2 1 1 1 1 1 1
1 2 2 2 2 2 1 1 1 1 1 1 1 1 1 1 1 1 1 2 2 2 2 3 4 4 4 5 4 4 3 2 1 1 1 1 1 1
1 2 2 2 2 3 2 1 1 1 2 2 2 2 2 2 1 1 1 1 2 2 1 2 2 2 3 3 4 4 4 3 2 1 2 2 2 1
1 2 2 2 3 1 2 4 3 2 2 2 3 3 3 3 2 1 1 1 2 2 1 2 1 2 3 3 4 4 4 4 4 3 3 2 2 2
1 2 1 2 2 0 0 2 2 3 3 2 3 3 3 3 3 2 2 1 1 2 0 1 1 2 3 4 3 4 4 4 4 4 4 4 3 3
1 1 1 1 2 1 1 1 2 3 4 3 3 3 3 1 1 2 1 1 1 2 1 1 1 2 2 2 4 4 4 4 4 4 4 4 4 2
1 2 2 2 2 2 1 1 2 3 3 3 3 4 3 1 0 1 2 2 1 2 1 1 1 1 2 2 2 4 4 4 4 4 4 4 4 1
1 1 2 3 3 3 2 1 3 3 1 1 1 2 2 1 1 1 1 2 2 3 2 1 1 1 1 2 2 3 3 3 3 4 4 4 4 2
1 1 2 3 3 4 3 3 3 2 1 1 1 2 2 2 2 2 2 2 3 4 4 2 2 2 1 2 2 2 2 3 2 2 3 3 3 3
1 1 2 3 4 4 4 4 3 1 1 1 2 3 3 3 2 1 1 1 2 2 2 2 2 2 2 3 2 2 2 2 2 2 2 2 2 2
1 1 2 3 3 3 4 3 2 1 1 2 2 2 2 2 1 1 1 1 1 2 3 3 1 2 2 2 2 3 3 2 2 3 2 2 3 2
1 1 1 2 2 3 3 3 2 2 2 2 2 2 2 2 2 1 1 1 1 2 2 2 3 2 1 2 2 2 2 2 3 2 2 3 4 3
2 1 0 1 1 2 2 3 3 2 2 2 2 2 2 2 2 1 1 1 2 2 2 1 1 2 2 2 2 2 2 3 3 2 2 2 4 4
1 1 1 1 2 2 2 2 3 3 2 2 2 2 2 2 2 2 2 2 2 2 2 1 1 0 2 3 3 2 3 3 2 2 2 3 4 5
1 1 1 1 2 2 2 2 3 3 2 2 2 2 2 2 2 2 2 2 2 2 2 2 2 2 3 3 3 4 4 3 3 3 3 3 4 6
1 1 1 1 2 2 2 2 3 2 2 2 2 2 2 2 3 2 2 3 2 2 3 3 3 3 2 1 2 3 3 5 5 4 3 3 4 4
1 1 1 2 2 2 2 2 3 3 3 3 3 2 2 2 3 3 2 2 2 3 3 3 2 2 1 2 3 4 4 4 4 6 5 5 3 4
1 1 1 2 2 2 2 3 3 3 3 3 3 2 3 3 3 3 2 2 2 2 2 2 2 2 2 2 3 3 4 4 3 3 4 6 7 8
Wind_Direction
243 250 258 270 247 235 206 196 191 265 292 298 306 319 333 327 324 327 324 324 330 334 332 327 327 330 323 302 304 301 305 317 315 312 321 339 344 14
246 262 278 272 279 257 225 228 207 202 248 273 267 292 320 336 339 336 326 328 329 334 333 331 326 325 326 312 308 304 309 327 318 306 306 339 23 5
284 266 274 274 281 278 248 224 222 200 232 276 272 297 313 334 342 342 342 342 333 337 336 332 326 322 313 295 292 330 315 319 310 304 297 341 15 359
271 268 275 289 291 278 253 240 237 225 215 259 294 304 298 311 329 332 344 343 334 337 346 352 344 332 338 333 330 353 2 354 323 299 276 286 324 307
253 254 264 267 278 275 258 244 248 248 227 221 274 281 292 303 334 336 347 355 351 354 5 5 1 2 4 14 22 14 7 358 341 348 5 309 291 290
271 268 264 250 252 252 247 239 235 238 236 232 266 290 290 294 309 330 349 358 350 358 6 4 3 6 9 9 11 11 360 355 22 60 22 341 334 307
317 307 292 294 283 268 263 220 193 193 219 248 260 293 302 301 287 274 328 341 341 356 10 357 358 8 7 2 359 360 359 359 20 50 16 342 321 295
288 310 310 320 328 328 326 321 209 211 224 228 245 236 251 243 246 260 287 349 326 333 9 342 2 357 352 356 352 357 3 3 0 340 330 319 315 300
249 284 308 332 0 357 354 3 352 327 273 222 226 243 235 231 201 194 215 251 274 296 359 327 357 340 337 343 347 359 14 17 8 350 338 330 315 303
248 258 261 301 308 253 40 7 339 326 299 270 232 251 243 211 192 194 197 235 314 309 317 292 326 325 334 342 346 0 11 9 2 1 356 338 326 313
295 281 250 267 303 308 99 338 325 317 324 320 303 299 290 253 163 126 113 103 307 299 287 247 295 324 327 330 350 358 356 352 346 343 344 343 339 322
324 318 302 291 311 327 209 205 278 290 310 339 342 338 340 342 75 160 178 183 249 279 261 262 289 331 324 318 340 349 351 344 340 334 333 338 340 347
270 299 304 317 321 323 313 253 262 273 287 312 325 334 340 335 338 326 209 202 218 247 243 216 252 280 255 292 315 332 339 340 339 334 330 331 333 327
229 280 300 330 339 345 339 328 329 335 333 343 328 309 307 297 285 301 290 263 241 237 237 217 225 235 256 282 284 306 325 327 326 326 331 338 339 332
200 270 351 3 4 357 352 347 351 355 324 285 280 277 276 268 258 274 315 342 347 324 288 256 223 228 238 253 261 275 301 313 319 315 328 335 325 336
67 29 18 17 15 355 350 348 339 303 289 270 269 268 275 277 261 241 242 252 307 317 340 338 297 216 249 261 245 264 279 278 305 309 312 316 311 298
106 50 35 19 11 359 350 342 334 330 315 300 288 285 283 280 269 252 229 239 248 283 311 340 360 357 255 237 246 256 268 280 281 294 300 306 303 288
102 104 15 344 322 324 322 324 323 315 303 292 290 285 277 282 287 284 256 236 242 257 273 285 333 356 357 342 252 235 260 271 283 286 271 278 291 292
116 187 242 266 293 299 299 305 307 305 298 293 292 302 297 282 274 271 266 263 263 258 260 259 262 258 299 301 297 255 253 276 282 287 273 262 271 280
177 222 245 261 279 285 293 304 307 313 317 307 300 304 312 304 287 268 259 257 259 267 268 266 251 247 251 262 273 284 268 253 258 268 278 282 281 282
240 256 273 282 285 287 290 296 296 299 304 305 302 297 304 305 292 277 269 268 268 262 264 273 268 279 286 288 287 293 288 270 256 257 260 277 287 290
236 264 287 295 290 290 294 298 301 305 307 303 300 299 296 297 295 282 267 261 266 269 277 286 292 290 283 265 273 284 294 300 294 288 270 253 250 252
253 269 279 287 293 303 308 308 306 304 298 296 297 300 297 293 300 295 277 269 271 278 284 293 302 297 286 273 274 283 291 299 306 313 305 294 277 269
Height
1522 1522 1521 1521 1520 1519 1519 1518 1517 1515 1513 1512 1513 1512 1512 1511 1510 1509 1509 1508 1508 1507 1507 1506 1506 1506 1506 1506 1506 1507 1507 1507 1508 1509 1509 1510 1510 1510
1520 1519 1519 1518 1517 1517 1516 1515 1515 1514 1512 1510 1510 1510 1509 1509 1508 1507 1506 1506 1505 1505 1504 1504 1503 1503 1503 1503 1504 1504 1504 1505 1506 1506 1507 1507 1507 1507
1518 1517 1516 1516 1515 1514 1513 1512 1512 1511 1509 1508 1508 1507 1506 1506 1506 1505 1504 1503 1503 1502 1501 1501 1500 1500 1500 1500 1500 1501 1502 1502 1503 1504 1504 1505 1505 1505
1515 1515 1514 1513 1512 1511 1510 1509 1509 1508 1507 1506 1505 1504 1504 1503 1503 1502 1501 1501 1500 1499 1499 1498 1497 1496 1495 1496 1497 1498 1499 1500 1500 1501 1502 1502 1503 1502
1513 1512 1511 1510 1509 1508 1507 1507 1506 1505 1505 1503 1502 1502 1501 1501 1500 1500 1499 1498 1498 1497 1496 1495 1494 1492 1492 1492 1494 1495 1496 1497 1498 1498 1499 1499 1500 1500
1510 1509 1509 1508 1507 1506 1505 1504 1503 1502 1502 1501 1500 1499 1499 1498 1498 1497 1496 1495 1495 1495 1494 1493 1492 1490 1490 1490 1492 1493 1494 1495 1495 1495 1496 1496 1497 1497
1507 1507 1506 1505 1504 1503 1502 1501 1500 1500 1499 1498 1497 1497 1496 1496 1495 1495 1494 1493 1492 1492 1491 1491 1490 1489 1489 1489 1489 1490 1491 1492 1492 1493 1493 1494 1494 1494
1504 1503 1503 1502 1501 1500 1500 1499 1498 1497 1496 1496 1495 1494 1494 1494 1493 1493 1492 1490 1489 1491 1489 1488 1488 1487 1487 1487 1487 1488 1488 1489 1490 1490 1490 1491 1491 1491
1501 1500 1499 1498 1498 1497 1496 1495 1495 1494 1494 1494 1492 1492 1491 1491 1491 1490 1490 1489 1488 1488 1487 1485 1486 1485 1485 1485 1485 1486 1486 1487 1487 1487 1488 1488 1488 1488
1498 1497 1496 1496 1495 1494 1493 1492 1492 1491 1491 1490 1489 1489 1489 1489 1489 1488 1488 1487 1487 1486 1485 1483 1483 1483 1483 1483 1483 1484 1484 1484 1484 1484 1484 1485 1485 1485
1494 1494 1493 1493 1492 1491 1490 1489 1488 1488 1488 1487 1487 1487 1486 1486 1486 1486 1485 1485 1483 1483 1483 1482 1480 1480 1480 1481 1481 1481 1482 1482 1482 1482 1482 1482 1482 1482
1491 1491 1490 1490 1489 1488 1487 1486 1485 1485 1484 1484 1484 1483 1483 1483 1483 1483 1482 1482 1481 1481 1481 1480 1479 1478 1478 1478 1479 1479 1479 1479 1479 1479 1479 1479 1479 1479
1487 1487 1487 1486 1486 1485 1484 1483 1482 1482 1481 1481 1480 1480 1480 1479 1479 1480 1480 1480 1479 1478 1479 1478 1477 1477 1477 1475 1475 1476 1476 1476 1476 1476 1476 1476 1476 1476
1484 1484 1484 1483 1482 1482 1481 1480 1479 1479 1478 1477 1476 1476 1476 1476 1475 1476 1476 1476 1476 1476 1476 1476 1475 1475 1474 1473 1472 1472 1473 1473 1473 1472 1472 1473 1473 1473
1481 1481 1480 1480 1479 1478 1478 1477 1476 1476 1475 1474 1473 1472 1472 1472 1472 1472 1472 1472 1473 1473 1473 1472 1472 1472 1472 1471 1469 1469 1469 1469 1470 1469 1469 1469 1469 1469
1478 1477 1477 1476 1476 1475 1475 1474 1473 1473 1472 1471 1470 1469 1469 1469 1468 1468 1468 1468 1468 1468 1468 1469 1468 1468 1468 1468 1467 1466 1467 1466 1466 1466 1466 1465 1465 1466
1474 1474 1473 1472 1472 1472 1471 1470 1470 1469 1468 1468 1467 1466 1465 1465 1465 1465 1464 1464 1464 1463 1464 1464 1465 1465 1465 1464 1464 1463 1464 1463 1463 1462 1462 1461 1462 1462
1471 1470 1469 1469 1468 1468 1468 1467 1467 1466 1465 1465 1464 1463 1462 1462 1461 1461 1461 1461 1461 1460 1460 1460 1460 1460 1460 1460 1462 1460 1460 1459 1459 1459 1458 1458 1457 1458
1467 1467 1467 1466 1466 1465 1465 1464 1464 1463 1462 1462 1461 1460 1459 1459 1458 1458 1458 1457 1457 1457 1457 1457 1457 1457 1456 1456 1456 1458 1457 1456 1455 1455 1455 1454 1453 1453
1465 1464 1464 1464 1463 1463 1462 1461 1461 1460 1459 1458 1458 1457 1456 1456 1455 1455 1454 1454 1454 1454 1454 1454 1454 1454 1454 1454 1452 1452 1454 1453 1452 1451 1451 1450 1450 1450
1462 1461 1461 1461 1460 1460 1459 1459 1458 1457 1456 1455 1455 1454 1453 1453 1452 1451 1451 1451 1451 1451 1450 1450 1450 1451 1451 1451 1449 1448 1449 1449 1449 1448 1447 1446 1445 1445
1459 1459 1459 1458 1458 1457 1456 1456 1455 1454 1453 1452 1451 1451 1450 1450 1449 1449 1448 1448 1447 1447 1447 1447 1447 1447 1447 1446 1445 1445 1444 1445 1445 1445 1444 1443 1442 1441
1456 1456 1456 1456 1455 1454 1454 1453 1452 1451 1450 1449 1448 1448 1447 1447 1446 1446 1445 1445 1444 1444 1444 1444 1444 1444 1443 1443 1443 1442 1441 1441 1440 1439 1439 1439 1438 1438